Theta_e
343 337 339 340 340 342 341 341 341 342 342 338 336 336 333 325 322 322 327 334 335 331 332 333 331 332 333 335 335 335 335 334 334 333 334 338 342 342 343 343 342 342 342 341 340 339 337 338 339 340 340 339 338 339 338 335 332 330 329 330 330 331 329 326 325 328 332 333 332 333 333 333 330 330 331 331 330 329 330 331 331 334 335 336 338
344 340 340 339 339 341 340 341 341 342 341 337 337 336 330 323 323 325 331 336 333 331 334 334 331 332 333 334 334 334 334 334 333 333 334 337 341 342 343 343 343 343 342 342 340 338 337 339 339 339 339 339 338 338 337 334 332 330 329 331 330 331 329 327 328 332 332 329 331 333 333 333 330 330 330 330 330 329 331 331 332 335 335 336 338
339 342 342 339 339 340 340 340 340 341 339 337 337 335 328 323 324 327 333 335 332 332 336 336 333 332 333 334 334 333 333 333 332 332 333 337 341 342 343 343 343 342 342 342 340 339 338 339 339 339 339 338 338 338 336 332 331 331 331 332 332 332 331 330 332 335 331 329 331 332 331 332 332 331 330 330 329 329 331 331 332 334 333 333 334
335 341 342 341 340 340 341 340 340 340 338 338 337 335 327 324 325 330 334 334 332 334 338 337 335 333 333 333 333 333 333 333 332 331 333 337 341 342 343 343 344 343 342 342 341 340 338 339 338 339 338 338 338 337 333 329 330 332 332 333 333 333 332 332 335 336 333 332 330 328 329 331 332 331 330 330 329 329 330 330 331 332 332 331 330
334 339 341 342 341 341 341 341 340 339 339 338 338 334 326 324 327 331 334 333 333 337 340 339 338 336 335 334 334 335 336 336 336 335 336 340 342 342 342 342 343 342 342 341 341 340 339 338 338 338 337 338 337 334 328 328 331 333 333 333 334 334 333 334 335 336 335 336 333 330 331 332 332 331 331 330 329 329 329 329 330 331 333 332 330
333 336 340 342 342 342 341 341 340 340 339 338 338 335 326 324 328 331 334 333 335 338 340 340 339 338 337 337 336 337 338 339 340 340 340 342 343 343 342 341 342 341 341 340 341 340 339 338 338 337 335 337 335 330 327 330 333 333 334 334 334 335 335 335 336 337 337 338 335 331 332 333 333 331 331 331 329 329 328 329 329 330 332 332 333
333 335 337 340 342 342 342 341 341 341 340 338 338 335 327 325 329 332 334 334 337 340 341 340 340 339 338 337 337 337 339 341 341 342 342 342 343 343 342 341 341 340 340 340 340 341 339 338 338 336 335 335 331 327 328 332 334 334 334 334 335 335 335 336 337 337 337 338 335 332 331 331 332 332 331 330 330 329 329 328 328 328 329 331 333
335 334 334 336 341 343 342 342 342 342 340 339 338 337 328 325 330 333 334 335 339 341 341 340 340 339 337 335 335 335 338 341 341 341 342 342 343 343 342 341 340 340 340 340 340 340 340 338 337 336 335 333 328 325 329 333 334 335 335 335 335 335 335 335 336 337 338 338 334 331 330 329 332 332 331 331 329 329 329 328 328 328 329 331 331
336 333 331 332 339 342 342 343 343 342 341 339 338 337 329 326 331 333 335 337 340 341 341 340 340 338 335 333 333 333 336 340 341 341 342 342 342 341 341 340 340 340 339 339 339 339 340 339 337 336 334 330 327 327 330 334 335 335 335 335 335 336 336 336 336 337 337 336 332 331 330 330 332 333 332 331 329 328 328 328 327 328 330 331 330
339 334 331 330 335 338 339 342 343 343 343 340 339 338 330 327 332 334 336 339 341 341 340 340 339 336 333 332 332 333 336 339 341 341 341 341 340 339 339 339 339 340 339 338 339 339 340 339 337 336 333 328 328 328 330 334 335 335 335 335 336 337 337 337 337 335 334 333 331 331 329 329 331 332 331 330 329 328 328 328 328 328 330 330 331
342 336 331 329 329 331 335 340 343 344 343 341 340 339 330 328 333 335 338 341 341 341 340 339 338 334 332 332 332 335 338 339 340 340 339 339 338 337 337 337 338 338 337 338 339 339 339 339 337 336 332 329 329 329 330 333 335 335 335 336 337 337 338 337 337 335 333 333 332 330 328 327 330 331 331 330 330 330 329 328 328 328 329 330 330
344 338 332 329 329 329 332 337 341 343 343 342 341 339 330 329 335 336 340 342 342 341 339 339 336 333 332 333 335 337 338 338 338 337 337 337 335 335 335 335 336 336 335 336 337 338 339 338 337 335 332 331 331 330 330 332 335 335 336 337 337 337 337 337 337 335 334 333 332 329 327 329 330 331 330 329 329 329 329 328 328 328 328 328 328
345 338 331 329 330 332 333 336 340 341 342 342 342 338 330 331 336 338 341 342 342 341 339 337 335 333 332 335 337 338 338 337 337 336 337 337 335 337 337 335 336 336 336 336 336 337 338 338 337 335 332 331 331 330 330 331 333 335 336 336 336 337 337 338 336 334 334 333 331 327 326 330 331 331 330 329 329 329 328 328 328 328 328 328 328
345 338 331 330 334 336 336 338 339 339 341 342 342 336 331 334 338 340 343 343 342 339 338 334 331 333 334 336 338 337 337 337 337 338 339 338 338 339 338 336 336 337 337 337 337 338 338 338 337 335 332 331 330 330 328 329 331 334 335 336 336 337 338 338 336 334 334 333 330 327 326 329 330 331 332 330 329 330 329 328 328 328 327 328 328
346 338 331 334 338 341 341 341 340 340 341 342 340 335 333 337 339 342 343 342 341 337 334 330 330 333 335 336 336 337 337 337 337 338 339 338 337 338 338 337 337 338 338 338 338 338 338 338 337 334 331 331 331 331 329 327 329 332 334 336 337 337 338 338 336 333 333 332 329 326 326 329 331 331 331 329 328 328 328 328 328 328 328 328 328
346 338 334 338 341 343 344 342 340 340 342 341 338 336 337 340 342 343 343 341 339 334 329 328 332 335 335 335 336 337 336 333 333 334 334 332 330 332 336 337 337 338 338 338 338 338 338 338 336 334 332 332 332 331 330 328 326 330 333 334 337 338 338 338 336 333 333 332 329 328 327 328 330 329 330 329 328 328 328 328 328 328 328 328 328
345 338 336 340 343 344 343 342 340 341 342 340 337 339 341 343 344 343 342 340 337 330 327 332 335 336 335 335 336 336 334 332 331 331 331 329 328 329 331 333 334 336 336 337 337 337 337 336 336 334 333 333 332 330 330 330 327 328 331 333 336 337 336 336 335 334 333 332 331 330 328 328 329 329 330 330 329 328 327 327 327 327 327 327 327
344 339 337 341 343 343 342 341 341 342 341 339 340 342 343 343 343 343 342 338 333 326 328 335 337 337 336 334 335 335 335 334 333 333 332 331 331 330 331 331 331 332 333 334 335 336 336 335 335 334 333 332 331 331 331 331 330 329 330 334 336 336 336 336 335 334 334 333 332 331 328 328 328 330 331 330 329 327 326 327 327 327 327 327 327
344 341 340 342 343 342 341 340 341 342 341 341 342 343 343 343 343 343 340 335 328 325 330 336 338 338 335 334 335 335 336 336 335 335 334 333 333 334 334 332 330 328 328 328 329 330 332 332 332 332 333 332 331 331 331 331 332 331 331 334 336 336 337 337 336 334 335 334 332 330 328 328 328 331 332 330 329 327 325 326 327 327 326 326 326
344 342 342 343 343 342 341 340 342 342 342 342 342 343 343 342 342 340 336 330 325 327 334 338 339 338 335 335 335 334 335 337 337 336 335 334 335 335 335 332 329 325 323 323 324 324 327 329 330 331 331 331 331 331 331 331 332 331 330 333 335 335 336 338 337 335 334 333 332 331 329 328 328 331 332 330 330 328 326 326 327 327 326 326 327
344 343 343 343 343 341 341 342 342 341 342 342 342 343 342 341 339 335 331 328 329 333 337 339 339 337 336 337 336 333 334 336 337 336 335 335 335 336 335 332 328 325 323 322 323 324 325 326 327 328 328 329 329 329 329 329 330 331 330 332 334 334 336 337 337 335 334 333 332 330 329 329 329 330 331 330 330 329 328 327 327 325 325 325 325
344 343 343 343 342 340 340 342 341 341 341 341 342 342 339 337 334 330 330 333 335 338 338 339 338 337 337 337 336 334 333 335 336 336 335 335 336 336 335 332 329 327 325 325 325 324 324 325 325 324 324 325 326 328 328 328 328 328 328 330 332 332 336 337 335 335 334 333 332 330 330 329 329 330 331 331 330 329 329 328 327 326 323 318 319
344 343 343 343 342 340 340 341 340 338 338 339 340 339 334 331 330 329 333 337 338 338 338 339 338 337 337 337 336 335 335 335 335 336 336 336 336 335 334 333 330 329 327 327 326 326 326 325 325 323 324 326 328 330 331 332 330 329 327 328 330 331 335 336 335 335 334 332 332 330 330 329 329 331 331 331 331 330 329 328 328 326 321 314 314
345 344 344 343 343 342 341 340 339 337 336 337 337 334 329 330 333 333 335 338 339 338 338 337 335 336 336 337 337 336 336 335 335 337 338 338 336 334 333 332 331 330 329 329 329 328 327 326 325 322 323 328 331 332 332 333 332 331 328 326 330 333 335 335 335 334 333 332 331 330 330 330 330 331 331 331 331 331 329 329 327 324 320 315 313
345 344 344 343 342 341 341 340 337 336 338 338 336 330 329 335 337 336 337 338 338 337 337 334 333 335 336 336 336 336 335 335 336 338 338 337 335 332 332 332 331 331 330 332 332 330 329 329 329 327 325 329 332 332 332 332 332 332 330 328 331 334 335 335 335 334 333 332 331 330 330 330 330 331 331 331 332 330 329 329 327 323 319 314 312
344 343 343 342 341 340 341 339 335 338 340 338 335 330 332 339 338 336 337 337 337 337 337 334 332 334 336 337 336 336 336 335 337 338 337 336 333 332 332 333 333 332 332 334 335 333 332 333 333 332 330 331 332 332 333 331 331 332 331 331 332 334 335 335 335 334 333 332 331 331 331 331 330 330 331 332 332 331 329 329 327 325 322 317 313
343 342 342 341 339 339 339 339 338 340 340 337 335 334 336 339 338 336 336 336 336 338 338 335 332 334 336 336 335 336 336 336 338 338 338 336 335 334 334 335 336 335 334 335 336 335 335 334 333 332 331 332 332 332 332 330 330 330 330 330 331 333 334 334 334 334 333 332 331 331 331 332 332 331 331 331 331 330 330 329 328 326 325 322 317
343 342 341 340 338 338 339 340 340 340 340 338 337 338 339 338 338 336 336 336 336 337 338 336 333 334 336 337 336 336 336 336 337 337 337 336 337 337 336 336 337 337 335 334 336 335 334 333 332 331 331 331 332 332 331 330 329 329 329 329 330 331 332 333 334 334 333 331 330 331 331 332 333 332 331 331 331 330 329 329 328 328 327 325 321
342 341 340 339 338 337 338 339 339 339 339 339 338 339 339 338 337 336 337 336 335 337 338 336 334 334 336 336 336 337 335 335 336 336 336 336 336 336 336 336 335 336 336 334 334 334 332 331 331 331 331 332 332 331 330 329 329 329 329 328 328 330 332 333 333 334 333 330 330 331 332 333 334 333 331 331 331 331 330 329 328 328 328 325 324
341 339 338 337 336 337 338 338 338 338 339 339 338 338 339 338 337 336 337 336 335 337 337 336 336 336 336 336 336 336 335 335 335 335 336 336 336 335 335 335 334 334 335 334 333 332 331 331 332 332 331 332 331 330 329 329 329 329 329 328 328 328 332 334 333 334 332 330 331 332 332 333 333 333 332 331 331 331 330 329 328 328 327 326 325
337 337 338 337 336 337 338 338 337 337 339 339 338 338 338 338 337 337 337 336 336 337 337 337 337 336 336 336 335 335 335 336 336 335 336 335 335 335 334 334 333 333 333 333 332 332 332 332 333 332 331 331 330 330 329 329 329 330 329 328 327 327 330 333 335 335 331 329 331 331 331 331 332 332 332 331 331 331 331 329 328 327 327 327 326
334 336 338 338 337 338 338 338 338 338 339 338 337 338 338 337 337 337 336 336 336 336 336 336 336 336 336 336 336 336 336 336 335 335 335 334 334 334 334 334 334 333 333 333 332 332 332 332 333 332 331 331 331 330 330 329 329 329 329 328 328 327 329 331 334 335 332 329 329 329 329 330 331 332 331 331 331 331 331 330 329 328 328 328 327
334 337 338 338 338 338 338 338 338 338 338 337 336 337 337 337 338 338 337 336 335 335 335 335 335 334 335 335 335 335 335 336 336 335 335 334 333 333 333 333 334 333 333 333 333 333 332 332 332 331 330 330 330 330 330 329 330 330 329 329 328 328 328 329 332 333 333 331 329 329 329 329 330 331 331 331 330 330 331 331 329 328 328 328 329
335 337 338 338 338 338 338 338 338 337 337 336 337 338 337 337 338 337 337 335 335 334 335 335 334 334 335 336 335 334 334 335 336 335 334 334 333 333 333 333 333 334 333 333 333 332 332 332 332 330 330 331 331 331 330 330 330 330 329 329 330 329 328 329 331 331 330 329 330 329 328 328 328 329 330 330 330 330 331 331 330 329 328 328 328
336 337 337 337 337 338 338 337 337 337 336 336 337 337 336 337 336 336 336 335 334 334 334 334 334 335 334 335 335 333 334 335 335 334 333 333 333 333 333 333 333 333 333 333 333 332 332 332 331 330 330 332 332 332 331 330 330 329 329 329 330 329 328 329 329 330 329 329 331 330 329 329 327 326 328 330 330 330 330 331 330 329 328 328 328
337 336 336 336 337 338 338 337 337 336 336 336 336 336 335 335 335 336 336 335 334 334 334 334 334 333 332 334 335 333 333 334 333 333 334 334 333 333 333 333 332 332 332 332 332 333 332 331 331 330 331 333 333 333 331 329 329 329 330 330 330 329 328 328 328 329 330 331 332 330 330 330 328 326 327 328 330 330 330 330 330 329 329 327 327
338 337 337 336 336 337 337 337 337 336 336 336 335 334 334 334 336 336 336 336 335 334 334 333 333 332 331 331 333 333 333 333 334 334 333 333 333 333 332 332 332 331 331 332 332 333 333 331 331 330 331 333 334 334 331 329 329 329 329 330 330 330 329 329 328 328 329 331 331 331 331 331 329 328 327 327 329 330 330 329 329 329 329 327 327
338 337 336 336 336 336 336 336 336 335 335 335 335 334 334 335 336 335 334 334 334 333 332 332 332 331 330 330 332 334 334 334 334 334 333 333 332 332 332 332 331 331 330 331 332 333 333 330 331 331 331 333 333 333 332 332 330 328 329 329 329 330 330 329 329 329 329 329 330 331 332 332 331 330 329 327 327 328 328 328 328 329 328 327 326
337 337 336 336 335 335 335 335 335 335 334 334 334 334 334 335 335 334 333 333 333 333 331 331 331 331 331 333 334 335 335 334 334 334 334 333 332 332 332 331 331 331 331 332 332 333 333 331 331 332 331 331 332 332 332 332 331 329 329 328 329 331 330 328 329 329 329 329 330 331 332 333 332 332 331 329 327 327 327 326 326 327 327 327 326
337 337 337 336 336 335 335 335 335 336 335 335 335 334 334 334 333 332 331 331 332 333 332 331 332 332 333 334 335 334 334 334 333 333 333 332 333 332 332 331 331 330 331 332 333 332 332 332 333 333 331 331 331 332 332 331 331 329 330 330 330 330 330 329 329 329 329 329 330 331 331 332 332 332 332 331 329 327 327 327 327 326 326 326 325
336 337 337 336 336 336 335 336 335 335 335 334 333 332 333 333 332 331 330 330 331 332 333 333 332 332 333 334 334 334 333 333 333 333 333 333 332 332 331 331 330 330 331 331 331 331 331 331 332 332 332 331 331 332 332 331 330 329 330 330 329 329 329 329 329 329 329 328 329 330 331 331 331 331 332 332 330 328 327 328 328 327 327 326 326
336 336 336 335 335 335 335 335 335 334 333 332 332 332 332 332 331 331 330 330 330 330 331 332 332 331 330 331 331 331 332 332 331 331 332 331 331 331 330 329 329 329 330 330 330 330 331 331 332 332 331 331 331 332 332 332 330 330 330 328 327 329 329 329 328 328 328 328 328 329 330 330 330 331 331 331 330 329 328 328 329 329 328 327 327
336 336 336 335 334 335 334 334 334 334 333 332 332 332 332 332 332 331 330 330 329 329 329 330 331 330 329 328 327 327 329 329 329 329 329 329 329 329 328 328 328 328 329 329 329 330 331 331 332 331 330 330 330 331 332 331 330 330 330 330 328 328 329 328 328 329 328 328 329 330 329 329 330 331 331 330 330 331 330 329 329 330 329 328 328
335 336 336 335 334 334 334 334 335 335 334 332 331 331 332 332 332 331 330 330 328 327 327 327 328 329 329 329 326 326 328 329 328 327 327 328 328 327 327 328 328 328 329 328 328 329 330 331 331 329 329 329 330 331 331 331 331 330 332 332 329 329 330 329 327 328 328 328 329 329 329 329 330 330 331 330 330 331 330 329 330 330 330 330 329
335 336 336 336 335 335 334 334 335 335 333 332 331 331 332 332 330 329 329 328 327 326 327 327 327 327 327 328 327 327 328 328 326 325 327 327 327 326 326 326 327 327 327 326 327 328 329 329 329 329 329 329 329 330 331 331 331 330 330 331 331 331 331 328 328 328 328 329 329 328 328 328 330 330 330 329 329 330 329 329 330 330 330 329 329
334 335 335 335 334 334 335 335 335 335 333 331 330 332 331 330 328 327 326 325 325 326 327 327 326 326 326 324 324 326 327 326 324 324 325 326 326 326 324 325 326 326 326 326 326 326 327 328 328 329 328 328 329 329 330 331 330 329 329 330 332 331 328 328 330 328 327 328 329 329 328 328 329 329 328 328 328 328 328 329 329 329 329 328 329
333 334 334 334 334 334 335 335 335 335 332 330 331 332 330 329 328 326 324 324 325 325 325 325 325 326 326 324 324 325 325 324 324 324 325 325 325 325 324 324 325 325 325 326 326 326 327 328 328 328 328 328 328 328 329 329 329 329 330 329 329 329 328 329 329 328 328 328 327 328 329 329 329 328 328 328 328 328 328 328 328 328 328 328 328
333 333 333 333 334 334 335 335 335 333 330 330 332 331 330 330 328 325 324 324 324 324 324 325 326 326 325 324 324 323 322 321 322 323 324 324 323 322 323 324 325 325 324 325 326 326 326 326 327 328 328 327 327 327 328 328 328 328 329 329 329 329 329 328 328 328 328 328 327 327 327 328 329 328 328 328 328 328 328 328 327 327 327 327 327
333 333 333 333 334 335 335 334 334 331 330 332 333 331 330 329 326 325 326 325 324 324 325 326 326 325 324 324 323 322 321 319 319 321 322 323 322 321 323 324 324 324 323 323 323 324 325 325 326 327 327 326 327 327 327 328 328 327 328 328 328 328 328 328 327 327 326 327 328 327 326 327 328 328 327 326 327 328 327 327 327 327 326 326 326
332 333 333 333 334 335 335 334 331 329 331 332 332 331 329 327 326 327 327 324 324 325 325 325 325 325 324 323 322 320 320 319 319 320 321 321 321 321 322 323 322 320 321 321 321 322 324 324 324 325 325 325 326 325 325 325 325 326 327 327 327 327 327 328 327 326 325 325 327 326 325 326 326 327 326 326 326 326 325 324 324 324 325 325 325
333 333 334 333 334 335 334 332 329 329 331 332 332 330 329 328 328 328 326 324 325 325 324 324 325 325 324 322 321 319 320 320 320 319 320 320 320 321 321 321 320 320 321 321 321 322 323 323 323 324 324 323 323 322 321 319 319 322 324 324 325 326 326 327 327 327 325 324 326 326 325 325 326 326 326 324 324 323 322 321 320 322 323 323 323
Wind_Speed
23 25 26 22 22 20 20 21 21 22 23 22 21 21 20 19 20 21 22 21 21 20 20 20 21 21 23 25 25 25 24 23 21 21 20 20 20 20 20 19 19 19 19 18 16 16 17 18 18 17 15 16 16 16 14 14 16 17 18 18 18 17 18 19 19 21 22 21 20 20 20 20 20 19 19 19 19 18 18 20 22 20 19 18 18
24 25 25 23 23 21 21 21 22 22 22 22 21 21 19 19 20 21 22 21 21 20 20 20 21 21 23 24 24 23 22 21 20 19 19 19 19 19 18 18 18 17 17 16 15 16 17 17 17 16 15 14 15 14 13 13 16 17 17 18 18 18 18 19 21 22 21 21 21 21 21 21 20 20 20 19 19 19 19 21 21 19 19 18 18
27 25 25 24 23 22 22 22 23 22 22 22 21 20 19 20 21 22 22 21 21 20 19 20 21 20 21 22 22 21 20 19 18 17 17 18 18 18 17 16 16 16 15 14 14 16 16 16 16 16 15 14 14 12 12 13 16 17 18 18 18 18 18 21 22 20 21 22 22 21 20 21 20 20 20 21 20 19 19 20 20 18 17 17 17
29 26 25 24 23 23 22 23 23 22 22 21 21 20 20 20 21 22 21 21 20 19 19 20 20 19 19 20 20 20 19 18 17 16 17 17 18 17 17 16 15 16 15 14 14 15 15 15 15 15 14 14 13 11 13 15 17 18 19 18 18 17 17 20 20 19 21 23 21 20 21 21 21 19 19 21 20 20 19 19 19 17 16 16 16
31 26 25 25 24 23 22 23 22 22 21 21 21 20 20 21 22 22 21 21 20 19 18 19 18 18 18 18 18 18 17 17 17 16 16 17 17 16 16 15 15 15 15 14 14 14 14 14 14 13 13 12 11 11 15 18 19 19 18 17 16 16 15 17 18 17 16 17 19 20 21 21 20 19 18 20 20 19 19 19 19 17 18 17 17
31 27 26 25 24 23 22 22 22 22 21 21 21 20 21 21 22 22 21 20 19 18 18 18 17 17 17 17 17 16 17 16 16 16 16 16 16 15 15 15 15 15 14 14 14 14 13 13 13 11 12 11 10 13 16 19 19 18 16 15 14 14 13 13 13 13 9 10 15 17 20 19 19 18 17 18 19 18 18 17 16 15 17 18 17
31 28 26 25 25 23 22 22 22 22 21 22 21 20 21 22 22 22 21 20 18 18 17 17 16 15 16 16 16 16 16 16 15 15 15 15 15 15 14 14 14 14 14 14 13 13 12 13 12 11 11 9 11 15 17 18 18 16 15 14 13 12 11 10 9 8 5 8 14 15 17 17 18 18 16 18 18 17 17 16 15 15 15 15 17
29 28 25 25 24 22 22 21 21 21 22 22 21 20 21 22 23 22 21 20 18 17 16 16 15 15 16 16 15 15 15 15 15 16 15 15 15 14 13 13 13 13 14 14 13 13 12 11 11 11 9 8 13 17 18 18 17 15 14 12 11 10 9 8 8 7 6 10 15 14 15 16 18 17 16 17 17 17 17 16 16 16 15 14 14
27 26 25 25 23 22 22 21 21 21 22 22 22 21 21 22 23 22 21 20 18 17 15 15 15 14 15 15 15 15 15 15 16 15 16 16 15 14 13 13 13 13 13 15 14 12 12 11 11 10 8 10 14 16 17 17 16 14 13 11 10 9 9 9 10 12 13 17 18 15 15 16 17 17 16 16 17 17 18 18 18 17 16 14 14
25 25 25 24 23 22 22 21 21 21 22 22 22 21 21 23 23 23 21 19 18 16 15 14 14 14 15 15 15 15 15 16 15 14 14 14 13 13 13 13 13 13 13 15 14 12 11 10 10 8 7 11 15 15 16 16 14 13 11 10 10 10 10 12 14 17 21 20 17 15 14 15 16 16 15 16 16 17 17 18 18 17 16 17 16
23 24 24 24 23 22 22 22 22 22 22 22 22 21 22 24 24 23 21 19 18 16 15 14 14 14 14 14 15 14 13 14 13 12 12 11 11 11 11 11 11 11 12 13 12 11 10 10 9 7 8 12 14 14 14 14 13 11 10 10 10 11 12 15 16 19 21 18 15 14 14 15 16 15 15 15 16 16 16 16 16 16 16 17 17
21 23 23 23 23 22 22 22 23 22 22 22 22 22 23 25 24 22 21 19 18 16 15 15 15 14 14 14 13 12 12 12 12 11 10 10 10 10 10 10 10 10 12 12 11 10 9 9 7 6 8 11 12 12 12 12 11 10 9 9 10 11 12 16 16 19 18 15 14 14 15 17 16 14 15 15 15 16 16 16 16 16 16 16 15
21 22 24 23 23 22 22 23 23 22 22 23 23 23 23 25 24 22 20 19 18 16 15 15 14 14 13 13 12 12 11 11 11 11 10 10 9 8 8 10 11 11 11 11 10 10 9 8 7 6 8 9 10 10 10 9 9 9 9 9 10 11 12 15 16 19 16 13 13 14 15 16 15 14 14 15 15 15 15 15 15 16 16 15 16
22 22 24 24 23 23 22 22 22 22 22 22 23 23 24 25 24 22 20 18 17 16 15 14 14 14 14 14 13 12 11 10 10 10 10 10 9 7 8 10 10 10 10 10 10 9 8 7 6 6 8 8 6 7 7 8 8 8 8 9 9 10 12 15 16 17 14 13 13 13 14 15 15 15 13 13 14 15 15 15 15 15 15 15 16
23 24 25 24 24 22 22 22 22 21 22 22 23 24 25 25 23 21 19 17 16 16 15 14 15 15 15 15 14 12 11 11 11 11 11 10 9 8 9 9 9 9 8 9 9 8 7 6 5 5 8 7 5 5 5 6 7 7 8 8 8 9 11 14 15 16 14 14 13 13 13 13 13 13 12 11 13 14 14 14 14 15 14 14 14
23 25 26 25 24 23 21 22 22 21 22 23 24 25 25 25 22 20 17 16 15 15 15 16 16 16 15 16 15 13 12 12 12 12 12 10 9 9 9 8 8 7 7 8 8 7 6 5 4 4 6 6 5 4 3 4 6 7 7 7 7 8 10 14 13 16 14 13 13 13 12 12 11 11 12 13 14 14 14 13 14 14 13 13 14
23 25 26 25 24 23 22 22 22 22 23 24 25 25 24 23 21 18 16 15 15 15 17 17 16 15 16 16 15 13 13 12 12 12 11 10 9 9 9 8 7 7 7 7 7 7 5 5 4 3 5 4 3 3 3 3 4 6 5 5 6 8 12 15 13 16 13 13 12 12 12 12 11 13 14 14 13 12 13 14 13 13 13 14 14
23 25 26 25 25 24 23 23 23 23 24 25 24 24 23 22 19 17 16 15 15 16 18 19 16 15 16 16 15 14 13 12 11 10 9 9 8 8 8 7 7 7 7 6 6 5 4 4 3 3 3 3 3 3 3 3 3 5 4 5 5 8 12 13 12 15 11 11 11 12 13 12 12 14 14 13 11 10 12 13 12 13 13 13 13
22 24 25 25 25 24 23 23 24 24 25 25 24 23 21 19 17 17 17 16 16 17 18 18 17 16 16 16 15 14 13 11 11 10 8 7 7 7 7 6 6 6 5 4 4 4 4 3 3 3 3 4 4 3 3 3 2 3 4 5 4 7 9 10 10 15 11 11 11 12 12 11 12 15 13 12 11 10 11 13 13 13 12 12 12
23 24 25 24 24 25 24 23 23 24 24 24 23 22 19 17 17 18 17 16 16 16 16 15 16 17 17 16 15 15 14 11 10 9 8 6 5 5 5 6 6 6 7 6 6 6 5 5 4 4 3 3 4 3 3 3 3 2 3 4 4 6 8 8 10 14 11 11 10 11 11 10 12 15 14 12 12 10 11 13 12 11 11 12 12
24 24 23 23 24 25 24 23 23 23 22 22 22 21 18 18 19 19 17 16 16 15 14 14 16 19 18 16 15 16 14 12 10 9 8 6 5 4 5 6 6 7 9 8 8 8 8 7 6 5 4 4 4 4 4 3 3 1 3 5 5 5 8 8 11 12 10 10 9 11 11 10 11 13 14 13 13 11 11 10 9 10 11 11 11
24 23 22 22 23 24 24 23 23 22 22 22 22 20 19 21 20 18 16 15 15 15 15 15 16 19 18 15 15 16 14 12 11 10 8 6 5 4 4 6 7 8 8 8 8 8 9 8 7 6 5 5 6 6 5 5 4 2 1 5 5 4 6 6 9 10 9 10 9 10 11 10 11 12 14 14 12 12 11 9 8 9 9 9 10
23 23 23 23 23 24 24 23 23 22 22 22 21 19 20 21 20 19 17 16 15 15 15 15 16 17 16 15 15 15 14 12 10 9 7 6 6 5 4 5 6 7 7 6 7 7 8 8 7 7 7 7 7 6 4 5 4 3 1 5 5 2 3 3 7 8 8 9 9 10 10 10 11 13 15 13 12 11 10 8 7 8 7 8 9
23 23 23 24 24 24 24 23 23 23 22 21 20 19 19 19 20 20 19 18 17 14 14 15 15 15 15 14 14 13 13 12 10 8 7 7 6 5 5 5 5 5 5 5 6 6 6 6 7 7 7 7 6 3 3 6 4 2 2 4 4 1 5 2 6 8 8 9 9 10 10 11 13 15 15 12 12 10 8 8 7 8 8 9 10
24 22 22 24 25 24 24 23 23 22 20 19 20 20 19 19 20 20 18 19 18 15 14 14 13 13 14 15 13 12 12 12 11 9 8 7 6 5 5 5 4 5 5 6 6 5 4 4 5 5 6 6 3 1 4 7 4 3 1 3 1 4 7 4 8 9 8 9 10 11 11 12 13 15 14 12 11 9 8 8 7 8 10 10 10
24 21 21 23 23 24 24 24 24 21 19 19 21 20 18 19 19 19 19 19 19 16 14 14 13 13 14 14 13 12 13 13 12 10 8 7 6 5 5 5 5 4 4 5 4 2 2 1 0 2 2 2 1 1 3 4 2 3 3 4 3 3 3 5 10 9 9 10 11 11 11 12 12 14 15 11 10 10 9 9 7 8 10 11 10
23 22 22 22 21 23 24 23 22 20 19 21 21 20 19 18 17 19 20 19 19 17 15 15 14 14 14 13 13 12 13 13 13 11 9 8 7 6 6 5 4 3 4 4 2 2 2 3 4 4 3 3 2 2 1 1 1 2 3 5 6 9 6 6 9 9 10 11 11 11 11 12 12 14 14 12 11 11 10 9 8 8 9 10 10
24 23 23 22 20 20 21 20 19 19 19 20 21 20 19 17 16 18 19 18 19 17 16 15 14 14 14 12 12 12 13 14 13 12 11 11 10 8 8 7 6 5 5 5 5 4 4 4 6 5 3 3 3 3 1 2 0 1 3 5 3 8 8 8 8 8 10 10 12 12 13 14 13 13 13 13 12 12 11 9 8 9 8 8 9
25 25 23 22 20 17 18 19 19 19 18 18 19 20 18 16 16 17 17 17 17 17 16 15 15 15 14 11 11 12 13 14 13 12 12 12 11 11 9 9 9 7 6 6 5 4 3 3 4 4 1 2 3 4 2 2 1 3 3 5 2 4 7 9 9 9 10 11 13 14 14 15 14 12 12 12 12 11 10 10 9 8 6 6 8
26 26 23 20 19 17 19 22 21 20 20 18 18 18 16 14 16 17 16 15 15 15 16 16 17 16 13 12 12 12 12 13 13 12 11 11 11 11 9 9 9 7 8 7 5 3 1 1 2 4 2 1 2 3 2 1 1 5 7 4 2 3 7 9 9 9 11 13 14 14 14 14 14 12 11 11 11 10 11 11 10 7 5 6 8
24 22 21 21 21 21 21 22 20 20 21 19 17 17 15 14 15 15 13 13 13 14 15 16 16 14 14 14 13 13 12 13 13 11 10 10 10 10 9 9 8 7 8 7 5 2 1 1 1 4 3 1 1 2 2 1 1 4 6 4 3 3 6 7 8 9 12 15 14 11 12 12 13 12 11 11 10 10 11 11 10 8 6 6 8
21 19 22 23 22 22 22 21 19 21 21 20 19 18 16 15 15 14 13 12 13 14 14 14 14 13 15 15 14 14 13 13 13 10 9 9 9 10 10 9 7 7 7 6 4 2 2 1 2 3 4 2 1 2 2 1 2 3 4 5 5 5 5 4 8 10 12 14 9 9 13 13 13 13 12 12 11 10 10 11 10 9 7 6 6
21 25 26 25 23 22 23 22 22 24 23 21 21 20 19 18 16 15 15 13 13 15 14 13 13 14 14 15 15 14 12 11 10 9 8 8 9 9 8 7 6 6 7 6 4 3 3 2 3 3 3 3 2 2 2 1 2 2 3 5 7 7 6 5 8 10 9 8 9 13 15 13 13 13 13 13 12 11 10 11 10 9 9 6 6
23 27 28 27 25 25 25 23 22 24 24 22 21 21 21 19 16 16 16 13 12 15 14 13 14 14 15 15 14 12 9 8 9 9 8 8 8 7 5 5 6 6 6 5 5 5 4 4 4 3 3 5 3 3 2 2 3 3 3 4 8 10 9 10 10 10 7 5 9 15 15 12 13 13 13 13 13 12 10 11 10 9 10 8 6
24 29 29 28 28 27 27 24 23 22 22 22 22 21 20 19 17 16 16 14 14 14 13 12 13 13 14 15 12 10 9 9 10 8 7 7 7 6 4 4 5 6 6 6 6 6 5 4 3 4 4 5 5 5 4 2 4 5 5 6 9 12 11 12 10 7 5 5 9 13 13 12 13 13 13 13 13 12 11 12 9 8 10 10 8
26 30 30 30 30 29 28 26 23 22 20 20 21 21 20 18 16 16 15 14 13 13 12 11 10 10 12 12 10 9 9 9 9 8 7 8 6 5 5 5 5 6 7 7 6 6 5 4 3 4 5 6 4 4 4 3 4 7 8 8 10 13 10 8 8 6 5 7 10 12 12 13 13 13 12 12 12 12 11 11 9 8 9 9 9
29 31 30 29 30 29 28 27 25 23 21 20 20 21 19 17 15 14 13 12 11 11 11 9 8 9 8 8 8 7 7 6 7 7 8 8 6 6 6 5 6 6 7 7 6 5 3 3 4 4 5 7 4 4 5 5 4 6 9 10 10 11 9 6 7 7 7 8 10 11 12 13 14 13 11 11 11 11 10 9 9 10 10 10 9
32 33 31 29 30 29 28 27 27 25 23 21 20 20 19 17 14 13 13 13 12 11 11 10 9 10 7 6 8 6 6 7 8 9 10 8 6 7 7 6 6 6 6 7 6 5 3 3 4 4 5 6 6 4 5 5 5 6 10 14 11 7 6 6 9 10 8 8 9 10 11 13 14 12 11 11 11 11 9 9 10 12 11 10 9
31 30 29 30 30 30 30 29 27 25 24 22 21 20 20 18 16 15 15 14 13 12 11 11 11 12 9 10 11 10 8 8 10 11 9 7 7 6 6 6 5 5 6 7 6 5 4 4 5 4 4 5 6 5 4 5 5 6 11 17 15 9 8 8 10 11 8 7 8 9 11 12 13 12 11 10 10 11 10 10 10 11 11 9 9
28 27 27 30 31 31 31 30 27 26 26 24 21 21 21 21 20 18 17 18 17 16 15 13 13 15 15 14 14 12 10 9 11 10 9 7 7 7 6 5 5 5 6 6 5 3 3 4 4 3 3 4 5 5 4 4 5 7 13 19 19 13 10 10 10 9 8 8 8 9 10 10 11 13 13 11 10 11 12 11 10 10 10 9 10
28 30 30 30 31 33 31 30 28 26 25 24 22 22 23 22 22 21 20 21 21 21 20 17 18 18 16 15 14 12 11 11 11 11 10 8 7 7 6 5 4 4 5 4 3 3 3 4 3 3 3 3 5 5 5 5 6 8 12 20 22 14 9 9 9 9 8 8 7 7 8 8 9 11 13 12 11 12 13 12 12 11 11 10 10
31 32 32 30 31 32 31 31 29 27 26 25 24 24 23 22 23 23 21 20 20 21 21 20 20 18 15 15 14 13 12 13 13 11 9 8 8 8 7 7 5 5 6 5 5 5 4 4 3 3 4 4 4 5 5 4 4 7 9 14 18 13 10 9 10 11 8 7 6 6 6 7 8 10 11 11 11 13 13 13 12 11 11 11 10
31 30 31 31 33 33 31 31 29 28 27 26 26 25 22 21 22 23 23 21 20 21 21 21 20 18 15 14 15 16 16 15 14 12 10 10 10 9 9 8 6 6 6 6 6 6 5 5 3 2 3 4 4 4 3 3 5 8 9 7 7 6 5 5 8 11 8 7 8 7 5 6 8 9 9 10 11 11 11 11 10 10 10 10 10
29 30 32 33 33 34 33 31 29 28 28 28 26 24 20 20 22 23 24 24 22 20 18 18 18 18 16 14 14 16 17 16 14 12 11 10 9 9 9 8 7 5 5 4 4 4 4 4 4 2 3 5 5 4 4 5 6 6 4 3 4 4 2 1 4 10 9 7 8 7 6 6 8 9 9 8 7 8 9 8 7 8 9 9 9
30 31 33 33 33 34 34 32 30 29 30 29 25 21 20 23 27 27 27 27 24 21 20 18 18 17 16 14 13 14 16 16 13 12 11 11 10 9 9 9 8 7 6 5 7 7 7 6 5 4 3 4 6 6 5 5 5 4 4 4 3 3 2 4 4 7 8 8 8 8 8 7 8 9 7 6 6 6 6 6 6 6 6 7 8
27 29 30 31 32 33 32 31 30 30 30 27 24 25 27 31 34 32 30 28 25 24 23 22 20 17 15 14 14 16 18 17 13 12 12 12 10 8 9 11 10 9 7 6 8 9 9 9 8 6 4 5 8 9 8 6 6 5 6 4 3 6 9 8 4 3 5 8 9 10 11 9 10 10 9 7 6 6 6 6 6 6 5 5 6
24 25 26 28 30 31 30 31 31 31 30 28 26 29 32 33 33 31 29 28 26 24 22 22 20 18 17 16 15 16 17 17 15 14 12 11 9 7 9 11 12 11 9 10 10 9 10 10 9 9 8 7 9 11 10 8 8 7 8 6 7 12 16 11 5 3 2 5 7 10 10 9 10 11 11 9 9 8 8 7 6 6 6 6 5
23 23 23 25 28 29 30 31 33 33 31 28 28 30 30 29 29 29 28 26 25 24 24 23 20 19 18 16 14 14 14 14 14 14 12 10 9 9 9 12 13 13 11 12 12 11 11 10 10 12 12 11 11 12 11 9 8 9 9 7 7 10 13 13 13 11 5 2 4 6 7 8 10 11 11 10 10 10 10 10 11 11 10 9 7
21 21 21 23 24 26 27 30 33 33 30 28 28 27 26 27 28 28 27 25 25 26 25 24 20 19 18 16 14 14 14 14 12 13 13 10 10 14 14 15 15 13 11 11 11 11 12 11 12 13 14 14 13 13 12 10 10 11 10 8 7 10 12 13 14 13 8 5 3 2 5 8 9 11 11 10 12 13 14 13 13 12 10 9 8
19 19 20 21 22 22 24 28 31 31 29 29 29 27 26 28 28 28 28 29 27 26 25 23 20 19 19 19 18 18 17 16 14 14 13 12 12 16 17 17 15 13 13 14 13 13 13 12 12 12 12 12 11 11 11 11 10 9 9 10 10 11 10 8 10 14 11 7 5 5 7 8 8 9 10 12 16 17 16 14 13 11 10 10 10
18 18 20 23 23 22 24 27 29 29 29 29 29 28 27 26 27 29 31 31 28 27 25 23 21 21 21 21 20 19 18 18 18 17 15 13 13 14 16 17 15 14 15 14 14 14 14 12 12 12 12 12 12 12 13 15 14 11 10 10 10 9 9 9 12 15 12 8 7 5 8 11 11 11 12 14 17 18 16 14 13 12 12 12 12
Wind_Direction
152 151 146 150 149 149 148 146 146 148 148 148 147 142 139 137 137 138 138 134 129 123 117 112 110 109 112 115 115 114 113 111 109 105 103 102 101 100 99 100 97 95 98 98 95 91 92 95 91 88 90 91 91 91 91 92 92 92 94 93 92 93 90 88 87 87 89 88 83 77 74 73 69 71 76 77 79 85 91 87 81 81 84 79 74
152 148 147 150 150 152 150 149 148 149 149 149 146 142 139 138 140 139 138 134 130 124 118 114 113 113 115 118 118 117 115 113 111 109 107 105 103 100 99 100 101 101 99 97 92 89 92 94 92 92 92 93 94 95 96 95 92 96 98 96 96 94 93 92 91 90 88 85 84 81 76 72 69 70 75 77 82 88 88 84 82 83 84 80 75
149 147 149 151 151 153 151 150 148 150 150 150 147 143 139 140 143 141 139 135 132 126 120 117 116 117 118 120 121 120 118 117 115 112 111 109 107 105 103 100 102 102 100 97 91 88 93 96 96 96 95 93 94 96 97 96 98 102 104 103 102 100 99 98 98 95 84 80 84 84 80 75 71 72 76 78 83 88 86 83 82 79 79 77 76
149 148 150 151 152 153 152 150 149 151 151 150 147 143 141 143 144 143 140 137 135 127 121 119 119 121 122 122 123 123 121 121 118 116 114 112 111 111 111 108 106 105 103 99 93 91 92 95 97 97 96 94 94 98 97 101 107 109 108 107 105 104 104 104 105 101 84 76 79 79 78 77 72 73 77 79 82 86 87 86 84 79 75 74 75
148 150 151 151 151 152 153 151 151 152 152 151 149 145 143 146 146 144 141 139 136 129 123 122 123 125 127 126 126 125 124 123 121 119 115 113 113 113 115 115 112 109 106 102 99 96 94 95 96 97 95 93 94 97 100 107 113 113 111 108 107 107 107 110 112 112 95 70 70 75 77 76 72 74 79 81 83 86 88 90 88 83 77 73 74
148 151 152 151 151 152 153 152 154 154 153 152 150 147 146 149 148 146 143 142 138 129 125 126 127 128 132 131 129 128 126 123 120 119 118 117 117 117 115 115 114 112 109 106 104 100 97 96 96 97 96 94 95 98 105 112 115 114 113 111 108 106 106 110 113 122 114 66 70 79 80 80 76 77 81 83 85 88 91 91 89 87 82 76 77
148 150 152 152 151 152 155 154 155 156 155 153 152 149 148 151 150 147 145 144 139 131 128 131 131 130 135 136 134 132 127 122 120 119 120 121 119 116 112 113 115 114 113 111 108 104 99 99 97 97 99 98 98 102 112 117 117 115 113 111 107 104 101 100 100 106 101 80 88 89 84 85 84 82 83 86 86 87 90 90 89 91 90 84 83
144 148 152 152 151 152 156 156 157 158 156 155 154 152 152 153 151 149 147 146 141 135 132 133 133 131 135 138 138 136 130 125 124 122 121 120 118 118 118 119 119 117 118 116 113 107 104 102 100 101 103 102 101 108 118 120 117 114 111 107 102 97 91 86 75 62 77 105 107 99 86 86 89 86 86 88 87 88 90 90 91 93 94 92 88
142 148 152 151 150 152 158 158 159 160 157 157 156 156 155 155 154 151 149 148 144 139 136 134 135 133 135 139 140 139 135 132 131 130 128 126 127 132 132 129 122 122 125 122 116 111 110 106 104 108 106 103 105 114 121 121 116 112 108 103 95 85 78 68 59 70 104 120 114 101 87 88 92 90 89 87 87 90 91 93 94 95 93 90 88
143 149 152 151 150 153 159 160 161 161 158 158 159 159 158 157 156 153 151 150 148 144 138 135 136 136 137 138 140 139 138 138 138 138 136 134 136 138 138 135 126 126 129 125 120 116 114 110 113 110 99 105 110 117 122 120 117 112 105 98 88 80 72 64 70 96 116 121 111 99 89 91 94 91 90 89 89 91 93 94 94 95 91 90 89
143 149 151 151 151 155 159 161 162 161 160 161 162 162 161 159 158 155 153 152 149 146 140 138 139 138 139 139 139 135 136 142 144 142 138 137 137 135 137 138 131 128 127 127 122 118 118 117 120 104 96 109 111 116 121 121 116 112 103 94 86 79 72 66 84 111 119 117 106 94 87 89 91 90 92 91 90 90 92 95 95 96 94 92 90
143 149 150 149 150 154 158 161 162 161 163 164 164 165 162 160 159 157 155 154 150 145 142 141 141 142 141 137 133 128 135 146 145 140 133 133 134 131 133 136 134 127 124 128 127 125 127 127 121 102 103 110 109 111 115 119 116 110 101 93 84 78 71 65 92 120 119 111 99 89 88 90 90 90 91 91 91 91 91 92 92 94 96 94 90
145 150 150 150 150 155 157 159 161 163 165 165 167 165 163 162 160 158 156 156 150 145 144 144 145 143 139 130 126 128 139 146 142 138 133 132 135 131 126 130 131 127 124 127 131 134 133 133 126 111 119 116 106 106 107 113 114 110 102 94 84 81 71 65 102 129 122 111 96 87 90 93 93 92 92 90 91 92 92 92 91 93 93 92 90
148 152 153 152 151 155 157 159 160 163 166 166 167 165 163 162 160 158 157 154 148 146 147 146 144 139 133 127 127 133 139 140 136 135 135 135 137 133 126 128 127 124 124 125 129 135 135 135 128 119 135 135 112 104 104 109 113 114 107 100 87 82 70 69 109 134 122 109 96 87 89 98 101 98 96 92 95 95 94 93 92 93 92 92 91
149 153 154 152 151 154 155 158 161 162 165 165 165 164 162 161 159 158 155 151 145 146 148 145 140 135 133 132 131 133 137 137 133 132 134 135 132 127 127 129 127 125 123 125 127 130 133 131 125 127 145 146 126 109 100 109 118 122 114 105 89 85 75 73 114 136 120 108 97 90 89 102 108 104 101 96 100 97 94 94 94 94 92 93 92
148 152 152 150 150 150 151 157 162 162 162 162 163 162 160 159 158 156 151 146 143 147 149 144 137 136 137 136 136 137 139 137 132 130 131 129 125 121 123 128 130 130 125 128 128 130 137 139 129 125 142 137 122 111 98 108 121 131 124 115 97 89 75 69 115 139 121 111 99 90 88 102 108 101 101 100 102 100 98 97 97 96 92 93 92
148 151 151 149 149 149 152 159 162 161 159 161 162 161 159 159 157 151 146 141 144 153 151 142 138 141 142 142 143 141 134 130 127 125 124 120 118 117 120 127 135 136 134 138 140 144 151 148 134 121 131 110 91 101 98 100 116 140 140 129 107 90 79 71 115 142 122 112 99 88 91 100 102 101 105 105 103 100 101 100 96 97 95 95 94
146 150 151 149 149 151 157 161 161 158 158 161 161 161 160 160 157 146 141 144 154 160 153 145 143 146 149 150 150 142 133 133 132 128 125 118 116 113 114 122 130 135 140 151 158 168 171 149 124 121 119 52 47 82 86 78 93 138 147 139 113 97 88 71 118 144 126 114 98 90 99 103 104 108 112 112 106 98 102 104 100 99 98 98 96
144 149 149 148 151 154 160 162 159 157 160 162 161 163 164 161 154 142 141 154 164 159 152 153 150 153 160 157 152 145 141 144 142 137 130 122 119 108 106 108 108 116 118 126 133 148 159 142 109 109 104 54 66 72 64 57 66 127 144 147 123 110 88 59 126 149 129 114 98 94 103 109 111 114 116 114 112 104 102 103 102 102 101 102 100
145 148 146 149 153 156 161 161 159 161 162 163 164 166 163 157 147 141 149 161 162 155 155 158 157 164 169 161 156 154 151 150 146 142 135 132 129 113 104 94 86 83 76 76 76 82 96 100 92 96 100 80 85 80 69 60 58 113 154 164 147 121 74 53 144 154 127 112 98 99 107 111 116 121 120 113 114 109 102 100 103 109 104 102 101
144 147 145 149 154 158 160 160 162 165 165 167 169 167 160 151 142 143 158 162 156 157 156 155 162 171 173 166 163 162 160 155 146 142 144 148 142 123 105 86 79 76 72 74 75 78 82 84 83 83 89 90 98 98 89 75 64 84 172 175 167 136 67 64 151 150 125 116 100 105 111 114 119 125 123 115 116 109 105 104 98 105 107 107 105
141 145 146 150 154 156 159 160 163 168 172 176 173 169 158 147 143 150 161 158 152 157 152 153 166 172 174 173 169 166 163 159 149 146 150 158 151 130 108 87 80 79 80 81 80 80 79 80 78 80 89 99 112 108 95 77 65 62 200 193 190 161 66 71 154 149 128 123 110 113 116 122 123 124 123 117 116 110 109 109 95 99 107 108 109
140 143 145 150 154 155 158 160 163 170 176 176 172 168 155 145 151 160 163 157 151 154 154 159 168 170 175 176 171 168 163 160 154 147 150 156 149 134 114 95 86 85 87 83 80 78 75 78 81 92 104 110 115 106 79 33 25 33 316 211 202 176 56 72 160 161 143 132 121 122 123 127 124 123 125 119 119 115 110 110 99 102 104 101 106
143 142 145 154 156 154 156 159 165 172 173 169 168 167 155 149 158 163 162 155 147 150 160 165 167 170 176 175 171 166 162 160 154 150 158 161 150 140 131 113 104 99 93 80 71 71 72 80 88 101 114 116 110 89 11 342 324 330 338 204 191 312 321 308 179 175 158 143 130 128 128 127 124 126 128 125 127 122 116 114 98 100 105 102 106
148 142 146 155 155 152 151 157 169 172 168 166 170 169 157 152 159 164 160 152 150 152 160 165 167 174 176 173 171 166 164 161 156 162 171 166 156 152 142 126 116 107 100 82 71 83 87 91 99 102 116 126 113 51 336 327 289 250 255 202 211 324 303 268 192 189 170 148 134 130 130 127 125 129 131 134 137 130 123 121 104 101 102 98 104
150 141 146 155 156 152 149 160 174 170 165 171 175 172 157 151 157 163 161 157 158 156 158 168 172 180 180 176 173 170 170 162 159 169 170 161 156 153 141 124 108 98 98 84 73 98 90 21 45 78 104 137 143 325 335 320 255 201 214 246 264 256 251 187 179 186 172 148 135 132 132 131 127 129 135 140 140 131 127 124 114 107 98 93 99
146 141 145 151 156 155 152 163 172 162 163 175 176 168 158 158 159 161 162 160 161 158 160 172 179 185 183 179 175 172 172 167 166 170 164 157 153 149 142 132 125 122 127 132 166 253 288 308 321 331 318 313 294 293 331 185 215 204 243 292 259 230 219 184 177 177 167 145 135 137 137 137 132 132 136 142 141 132 132 129 119 117 103 91 96
137 139 145 146 148 154 158 164 167 160 163 175 173 160 156 163 163 161 162 162 166 165 164 171 182 188 185 181 176 171 175 175 174 171 169 168 165 165 163 161 172 176 171 181 204 243 277 303 327 327 309 317 306 310 330 166 114 267 263 339 291 224 218 201 188 171 165 146 137 143 144 143 139 138 138 142 144 136 136 132 124 133 119 94 98
132 135 140 142 142 151 164 165 168 166 161 171 172 160 155 158 156 158 164 167 169 169 168 175 184 188 186 184 180 176 181 183 181 181 180 180 180 179 178 178 182 188 193 199 213 239 284 317 357 12 338 300 312 322 335 172 131 36 354 2 41 192 195 194 190 174 168 150 142 146 147 148 147 145 141 143 147 140 139 134 130 144 134 105 104
127 128 132 140 143 152 168 169 171 169 159 167 172 162 157 153 149 153 164 170 168 169 174 181 183 184 186 187 187 182 183 185 187 190 191 193 195 191 188 190 189 194 205 208 220 239 336 20 49 41 45 276 325 310 301 227 165 42 26 15 53 155 169 173 180 178 171 150 140 146 151 153 153 151 142 142 149 145 142 137 133 145 145 126 111
116 124 137 144 147 152 159 164 168 161 152 158 164 156 152 150 150 150 160 167 165 170 176 181 181 181 185 186 188 185 184 190 191 190 196 204 204 196 193 198 194 193 205 207 216 225 67 62 70 40 44 89 5 325 302 276 277 24 41 50 47 120 147 154 157 150 146 134 126 146 161 161 159 156 147 145 154 153 147 143 137 139 147 142 117
118 138 146 145 150 153 150 148 151 149 147 153 159 153 147 149 151 150 158 161 164 174 178 181 180 176 179 182 190 193 188 192 195 189 194 203 198 194 195 195 188 181 194 196 186 177 150 129 97 67 52 88 86 18 16 302 307 2 53 55 48 100 112 115 136 119 118 129 137 164 168 168 166 162 157 153 160 162 156 151 142 135 146 163 137
142 147 143 141 147 152 148 143 144 151 154 155 154 149 146 152 154 151 157 158 165 178 177 177 176 174 175 178 191 197 193 191 194 198 200 199 193 196 198 193 184 175 186 186 157 148 165 155 104 90 68 83 107 46 34 42 45 45 69 64 59 81 86 90 130 122 116 150 180 173 163 168 171 169 168 162 166 169 162 157 149 139 141 159 151
149 143 139 140 145 148 148 148 149 154 156 152 147 145 148 154 153 149 155 155 157 168 168 169 174 176 172 173 183 191 196 198 202 213 213 201 196 198 197 197 200 192 190 187 172 156 145 138 112 110 95 76 76 67 57 72 72 66 96 92 65 71 92 103 124 136 135 167 179 166 161 166 170 175 177 173 174 173 166 162 157 146 142 146 137
141 140 142 145 147 147 146 149 151 151 151 149 146 148 151 153 150 146 149 150 150 158 163 167 175 177 171 171 180 185 193 201 204 211 208 198 200 203 201 208 209 196 180 168 166 163 153 152 138 133 115 82 69 63 60 74 79 81 98 103 73 73 99 113 123 142 153 168 169 166 168 169 169 173 179 182 181 175 170 168 164 151 146 147 138
142 144 146 148 148 146 145 146 146 147 147 148 147 148 150 150 149 146 148 147 144 151 157 165 177 182 180 174 175 181 184 193 196 195 197 196 195 195 194 199 197 185 168 151 149 154 157 164 155 145 125 102 79 62 70 85 95 99 94 94 87 81 95 118 123 131 141 154 164 173 178 175 173 174 175 182 183 176 173 173 171 158 151 150 144
147 145 147 150 149 147 146 144 146 149 149 149 146 144 145 148 148 145 148 146 140 143 147 150 155 166 178 167 159 163 168 187 196 197 208 204 191 190 185 181 184 180 166 153 151 151 149 159 151 156 144 130 129 96 86 91 107 117 99 97 99 86 91 119 135 143 147 149 161 178 186 182 177 176 174 176 179 177 174 176 177 168 163 163 156
147 146 149 147 144 147 151 149 151 153 151 152 146 141 141 144 145 142 141 138 133 136 139 137 132 140 153 146 149 156 160 186 197 197 205 196 183 185 181 177 180 176 161 154 155 150 134 137 144 159 161 151 153 125 95 96 101 111 106 107 112 100 101 134 153 158 156 155 164 175 183 184 181 179 176 172 173 174 174 176 180 180 181 181 170
142 143 145 142 142 147 153 153 154 154 151 149 144 139 139 140 141 141 140 128 121 122 125 129 132 141 153 153 159 168 168 182 190 193 197 188 177 178 179 178 177 174 161 156 156 152 140 137 141 152 168 168 164 143 115 107 97 104 107 106 113 124 128 132 144 154 158 162 170 174 174 178 181 182 181 175 171 173 174 174 175 179 183 182 173
139 141 142 145 147 149 152 154 154 152 149 145 141 137 138 139 139 139 137 127 126 129 124 130 147 158 164 161 163 168 168 172 179 185 189 181 170 171 179 174 170 173 165 158 157 162 161 156 156 162 177 170 156 148 132 113 107 112 104 102 110 123 125 122 124 136 153 158 161 172 177 180 180 183 185 179 176 180 179 175 171 169 170 171 172
145 147 147 151 152 152 152 151 152 152 149 146 142 138 136 138 140 139 134 130 133 137 135 145 159 158 154 156 160 163 163 166 169 172 176 172 159 161 166 155 150 155 154 153 145 153 165 161 169 191 202 177 144 142 133 117 114 114 103 102 110 114 110 113 108 106 126 144 152 170 180 181 174 178 185 181 183 189 185 179 174 170 171 173 176
153 153 152 154 154 154 154 151 153 155 153 149 143 140 138 140 142 137 132 128 126 127 135 151 157 146 138 142 147 149 150 149 148 150 153 147 135 135 135 123 117 116 121 124 118 125 145 149 148 173 198 190 153 140 135 131 127 126 122 110 109 110 100 100 100 96 107 131 146 162 170 169 159 164 178 183 188 192 192 190 184 181 179 179 180
155 155 155 157 157 157 155 154 157 157 153 148 145 144 143 146 144 137 134 134 130 128 134 144 149 144 140 138 134 135 136 132 128 124 124 124 118 115 111 107 104 97 97 104 112 119 122 123 125 132 171 170 150 145 158 164 140 129 129 119 117 119 84 67 84 84 87 110 122 127 139 153 150 155 171 179 185 191 199 200 194 191 187 185 188
158 158 159 161 160 159 157 158 160 157 152 148 148 147 147 151 149 144 141 139 138 139 138 141 145 146 149 148 140 136 133 130 128 123 120 122 119 114 112 111 109 104 105 93 89 123 131 122 123 118 138 150 144 148 174 171 151 133 118 116 142 135 77 16 71 63 68 92 100 98 101 129 146 162 174 169 168 184 201 203 193 191 188 190 200
167 164 163 163 163 161 159 161 161 158 153 151 150 147 147 146 142 140 138 136 138 142 144 146 146 147 151 151 149 149 145 140 137 133 133 133 128 123 124 128 124 118 127 108 86 102 116 106 107 109 113 147 151 147 157 168 157 134 109 114 120 106 121 159 113 54 56 76 84 91 96 117 139 151 159 150 146 157 176 182 176 181 182 187 200
173 169 166 165 164 162 161 163 162 159 157 153 148 145 145 142 138 137 137 139 143 146 148 147 146 148 147 142 139 143 145 139 130 130 137 137 133 129 130 136 134 124 120 113 97 97 102 95 94 102 105 135 148 140 137 146 141 113 106 110 103 130 149 148 120 49 52 70 82 93 97 111 129 134 137 140 144 138 141 154 164 174 175 169 180
175 175 170 167 167 165 164 163 162 161 159 154 149 148 147 144 144 143 142 144 147 149 149 146 148 150 144 137 131 130 133 132 127 129 136 136 130 128 134 137 135 132 123 109 103 98 99 97 94 98 102 123 139 135 132 133 124 112 115 113 106 130 148 155 145 141 95 63 77 88 95 109 123 129 131 134 141 138 133 133 132 137 141 139 146
175 178 176 171 169 168 166 164 163 162 160 154 151 152 151 149 147 145 144 147 149 149 148 147 149 149 141 134 131 129 127 126 126 133 140 139 118 106 129 140 129 126 125 111 104 104 103 99 98 97 94 101 113 116 120 121 112 109 115 119 112 121 141 151 147 138 123 83 75 80 99 114 120 124 124 125 133 131 121 114 112 114 121 128 130
173 177 180 175 171 170 168 164 162 162 159 154 151 153 153 151 148 147 147 147 144 145 147 147 148 148 144 138 137 133 126 122 124 133 139 140 116 98 114 132 120 110 116 110 104 107 107 101 99 99 93 93 96 97 104 109 108 106 104 108 112 111 121 136 140 132 123 125 127 114 130 127 122 123 121 117 117 117 115 111 109 111 112 114 109
175 177 180 177 172 171 168 164 162 160 159 157 154 153 154 154 153 151 148 143 141 143 145 146 149 151 147 141 138 133 131 131 130 132 134 137 125 103 104 116 109 100 105 106 103 103 103 100 99 101 96 94 96 94 93 92 94 104 108 112 116 115 117 127 133 130 122 118 130 160 165 150 132 128 128 119 114 113 113 108 101 101 103 101 99
178 177 177 176 173 171 169 164 163 161 161 160 157 157 160 160 158 154 148 145 144 145 147 149 152 151 145 141 138 135 134 133 130 127 127 132 130 113 105 108 106 107 109 107 106 102 97 96 98 102 99 94 95 95 88 83 85 96 104 107 112 119 125 132 141 141 135 131 137 155 167 154 138 138 137 121 112 110 107 100 93 96 100 99 98